SCP
2 3 4 4 3 4 4 4 4 4 4 4 5 4 4 4 3 3 3 2 2 2 2 2 1 1 1 1 1 1 1 1 1 0 0 0 0 0 0 0 0 0 0
2 3 4 4 4 4 4 4 4 4 3 4 4 4 4 4 4 3 3 2 2 2 2 2 1 1 1 1 1 1 1 1 1 0 0 0 0 0 0 0 0 0 0
3 3 4 5 4 4 4 4 4 4 3 3 3 3 3 4 4 3 3 2 2 2 2 2 2 1 1 1 1 1 1 1 0 0 0 0 0 0 0 0 0 0 0
3 3 4 5 5 4 4 3 3 3 3 3 3 3 3 3 3 3 3 2 2 2 2 2 2 1 1 1 1 1 1 0 0 0 0 0 0 0 0 0 0 0 0
3 3 4 4 5 5 4 3 2 2 2 3 2 2 2 3 3 3 2 2 2 2 2 1 1 1 1 1 1 1 1 0 0 0 0 0 0 0 0 0 0 0 0
3 3 3 4 4 4 4 3 2 2 2 2 2 2 2 2 2 2 2 2 2 2 2 1 1 1 1 1 1 1 1 0 0 0 0 0 0 0 0 0 0 0 1
4 4 4 4 4 4 4 3 2 2 2 2 2 2 2 2 2 2 2 2 2 2 2 1 1 1 1 1 1 1 1 1 0 0 0 0 0 0 0 0 1 1 1
5 4 4 4 4 4 3 3 3 3 3 2 2 2 3 3 3 2 2 2 2 2 2 2 1 1 1 1 1 1 1 1 0 0 0 0 0 1 1 1 1 1 1
6 5 4 4 4 4 4 3 3 3 3 3 2 2 2 3 3 2 2 2 2 2 2 2 2 2 1 1 1 1 1 0 0 0 0 0 1 1 1 1 1 1 1
5 5 4 4 4 4 3 3 2 3 3 3 2 2 2 2 2 2 2 2 2 2 2 2 2 2 2 1 1 1 1 0 0 0 0 1 1 1 1 1 1 1 1
3 3 3 4 3 3 3 2 2 2 3 3 2 2 2 2 2 2 2 2 2 2 2 2 2 2 2 2 1 1 1 0 0 0 0 1 1 1 1 2 2 1 1
2 2 2 2 3 2 2 2 2 2 2 3 2 2 2 2 2 2 2 2 2 2 3 3 2 2 2 2 1 1 1 0 0 0 0 0 1 1 1 1 1 2 2
2 2 2 2 2 2 2 2 2 2 2 2 2 2 2 2 1 1 1 1 1 2 3 3 2 2 2 2 1 1 1 1 1 0 0 0 0 0 0 1 1 1 1
2 2 2 2 1 1 1 1 1 1 2 2 2 2 2 2 1 1 0 0 1 1 2 2 2 2 2 2 1 1 1 0 0 1 0 0 0 0 0 0 1 1 1
2 2 2 2 1 1 1 1 1 1 1 1 2 2 2 2 1 1 0 0 1 1 1 1 1 2 2 2 1 1 1 0 0 0 0 0 0 0 0 0 1 1 1
2 2 2 1 1 1 1 1 1 1 1 1 2 2 2 2 1 1 0 0 1 1 1 1 1 1 1 1 1 1 1 1 0 0 0 0 0 0 0 1 1 1 1
2 2 2 1 1 1 1 1 1 1 1 1 1 2 2 1 1 1 0 0 0 1 1 1 1 1 1 1 1 1 1 1 0 0 0 0 0 0 0 1 1 1 1
1 1 1 1 1 1 1 0 0 1 1 1 1 2 2 1 1 1 0 0 0 1 1 1 0 0 1 1 1 1 1 1 0 0 0 0 0 0 0 0 1 1 1
1 1 1 1 1 1 1 1 1 1 1 1 1 1 2 1 1 1 1 1 0 0 0 0 0 0 0 0 0 0 0 0 0 0 0 0 0 0 0 0 1 1 0
2 1 1 1 1 2 2 1 1 1 1 1 1 1 1 1 1 1 1 1 1 0 0 0 0 0 0 0 0 0 0 0 0 0 0 0 0 0 1 1 1 0 0
2 2 1 1 2 2 2 1 1 1 1 1 1 1 1 1 1 1 1 1 1 0 0 0 0 0 0 0 0 0 0 0 0 0 0 0 0 0 0 1 1 1 1
1 1 1 1 2 2 2 1 1 1 1 1 1 1 1 1 1 1 1 1 1 0 0 0 0 0 0 0 0 0 0 0 0 0 0 0 0 0 0 0 1 1 1
1 1 1 1 1 1 1 1 1 0 0 1 1 1 1 1 1 1 1 0 0 0 0 0 0 0 0 0 0 0 0 0 0 0 0 0 0 0 0 0 0 1 1
1 1 1 1 1 1 1 1 0 0 0 0 0 1 1 1 1 1 0 0 0 0 0 0 0 0 0 0 0 0 0 0 0 0 0 0 0 0 0 0 0 0 0
0 1 1 1 1 1 1 1 0 0 0 0 0 1 1 1 1 0 0 0 0 0 0 0 0 0 0 0 0 0 0 0 0 0 0 0 0 0 0 0 0 0 0
0 0 1 1 1 1 0 0 0 0 0 0 0 1 2 2 1 0 0 0 0 0 0 0 0 0 0 0 0 0 0 0 0 0 0 0 0 0 0 0 0 0 0
Wind_Speed
4 5 9 10 11 11 10 10 11 11 11 11 11 11 11 11 11 11 11 10 10 10 10 10 10 9 9 10 10 10 10 10 10 10 10 9 9 10 10 10 9 6 11
6 6 9 10 11 11 10 10 9 10 10 10 10 11 11 10 10 10 10 10 9 9 9 9 9 9 9 9 9 9 9 9 9 8 7 6 7 9 10 9 8 6 9
7 7 8 10 11 11 11 10 10 10 10 10 10 10 10 10 9 9 9 9 9 9 8 8 8 8 8 8 7 7 7 7 7 6 6 3 4 8 8 8 8 8 8
8 6 7 10 11 12 12 10 10 9 10 10 10 10 10 10 9 9 9 8 8 8 8 8 8 8 7 7 6 6 6 6 6 5 3 2 2 6 7 7 7 7 7
6 6 7 10 11 12 12 11 10 9 9 9 9 9 9 9 9 9 8 8 8 8 8 8 7 7 6 5 5 5 5 5 5 4 2 2 1 5 6 6 6 6 6
6 5 7 10 11 11 11 11 10 10 9 9 9 8 9 9 9 8 8 7 7 7 7 7 6 6 5 4 4 4 4 5 4 2 2 1 1 4 5 5 5 5 5
7 5 7 10 10 10 11 10 10 9 8 8 9 8 8 8 8 8 8 7 7 6 6 6 5 5 4 3 3 4 4 4 3 2 1 1 1 4 4 4 4 4 4
8 6 6 9 9 9 10 9 8 8 8 8 8 8 7 7 7 7 7 7 6 6 6 5 5 4 3 3 3 4 4 3 3 2 0 1 2 4 4 4 4 3 3
7 6 4 5 6 8 8 9 8 8 8 7 7 7 6 6 6 7 7 6 6 5 5 5 4 3 3 2 2 3 3 3 2 0 0 1 2 3 3 3 3 3 3
6 5 5 4 4 4 4 7 8 7 7 7 7 7 6 5 5 5 5 5 5 5 4 4 3 2 2 2 2 2 2 2 1 0 1 1 3 3 3 3 2 3 2
5 4 4 4 4 3 3 5 6 6 6 6 6 7 5 3 2 2 3 4 4 4 3 3 2 2 2 2 2 2 2 1 1 1 1 2 2 3 3 3 2 3 3
4 4 3 4 3 3 3 3 2 3 3 3 3 3 3 2 2 3 3 3 3 3 3 3 2 2 2 1 1 2 1 1 1 1 1 2 2 3 3 3 3 3 4
5 4 3 4 3 3 2 2 1 2 2 2 3 3 3 3 2 2 1 1 2 2 2 2 2 1 1 1 1 1 1 0 0 1 1 1 2 2 2 3 3 3 4
4 4 4 4 4 3 3 2 2 2 2 2 2 3 3 2 2 2 1 1 1 1 1 1 1 1 1 1 1 1 1 1 1 1 1 1 1 1 2 2 3 3 4
4 4 4 4 4 3 3 2 2 2 2 2 2 2 3 2 2 2 1 1 1 1 1 1 1 1 1 1 1 1 1 1 1 0 1 2 2 2 2 2 2 3 3
5 4 4 4 3 3 3 3 2 2 2 2 2 3 3 2 2 2 1 1 1 1 1 1 1 1 1 1 1 1 1 1 1 0 0 1 2 2 2 2 3 3 4
5 5 5 5 4 4 4 3 2 2 2 2 2 2 3 3 3 2 2 1 1 1 1 1 1 1 1 2 2 2 1 1 1 1 0 0 1 1 2 2 3 3 4
6 5 5 5 5 5 4 3 2 2 3 2 2 2 3 3 3 3 2 1 1 1 1 1 1 1 1 1 1 2 2 1 1 1 1 0 0 1 2 3 4 4 4
7 6 5 5 5 5 4 3 3 2 3 2 2 2 2 3 3 3 2 1 1 1 1 1 2 1 1 1 2 2 2 1 1 1 1 1 1 1 1 3 4 5 5
6 6 6 5 5 5 4 3 3 3 2 2 2 1 2 2 2 3 2 2 1 2 2 1 1 1 1 1 2 2 2 2 1 1 1 2 2 2 2 2 2 3 5
5 5 5 5 5 4 3 3 2 1 1 2 1 1 2 2 2 3 2 1 1 2 1 1 1 2 1 1 2 2 3 3 2 2 2 2 2 2 2 2 2 1 2
6 5 5 5 5 4 3 3 2 2 1 1 1 1 2 2 2 2 2 1 1 1 2 2 2 1 1 2 1 1 2 3 3 3 2 2 2 2 3 3 2 2 2
5 6 6 5 5 5 5 3 3 3 2 1 1 1 1 2 2 2 2 2 2 1 1 1 2 2 1 1 1 2 1 1 2 2 2 2 2 2 2 2 2 2 2
5 5 5 5 5 4 5 5 5 4 3 3 1 1 1 1 2 2 2 2 1 1 1 1 1 1 2 0 1 1 1 2 1 2 2 2 3 3 3 3 2 2 2
5 5 5 5 4 4 4 5 5 3 2 1 1 2 1 1 1 1 1 1 1 1 1 1 1 1 1 1 1 0 1 1 1 1 3 3 2 2 2 2 2 2 2
3 4 5 5 4 4 5 5 6 5 4 3 2 2 1 1 0 1 1 1 0 0 0 0 0 1 1 1 1 1 1 1 1 1 2 3 3 3 2 2 1 2 2
Wind_Direction
163 170 145 134 128 121 115 114 120 119 116 114 113 109 108 107 106 107 108 107 106 104 102 99 94 93 94 93 91 88 87 84 81 79 75 74 82 89 90 84 79 76 83
155 158 142 132 128 123 119 113 118 121 118 117 117 115 114 112 110 110 111 111 111 107 103 101 97 92 92 95 94 91 89 86 82 77 72 68 77 88 93 89 85 87 87
140 147 142 132 128 123 119 117 113 118 119 118 118 118 117 116 115 114 113 112 113 111 107 103 100 96 92 90 94 96 93 88 81 75 73 68 83 93 96 95 90 90 91
134 139 140 132 130 126 121 118 116 113 117 117 118 118 118 116 116 115 113 112 112 110 108 104 101 98 95 90 87 90 86 82 80 81 75 70 84 100 99 99 98 93 91
128 135 139 132 131 128 123 120 119 115 113 117 118 118 119 119 117 114 112 111 111 111 109 106 103 100 94 88 83 79 72 70 74 78 89 83 84 108 107 104 103 100 96
125 126 136 132 130 126 123 122 119 117 114 117 116 118 118 119 119 116 110 110 112 111 110 111 109 106 98 90 78 69 63 59 66 71 99 108 116 123 116 113 111 109 108
126 123 127 126 127 126 123 121 118 115 113 114 118 117 120 118 116 115 112 108 114 118 118 116 117 116 106 91 73 63 59 52 66 76 111 135 152 136 133 131 128 123 120
124 119 122 122 121 121 120 118 121 118 116 113 118 118 115 116 116 114 114 108 108 114 117 117 118 118 111 93 66 52 48 47 58 80 94 202 191 154 146 142 142 137 136
115 115 112 115 118 118 119 120 119 118 114 111 115 111 102 104 112 117 114 111 107 111 113 111 112 116 108 90 61 43 38 39 55 55 221 221 202 173 159 158 165 170 162
113 115 114 108 108 116 120 123 118 115 111 105 107 104 96 93 104 110 111 108 103 95 104 105 102 98 89 68 44 33 24 35 41 306 241 238 222 195 177 175 183 189 189
110 113 118 119 120 125 131 123 116 111 106 104 101 98 96 94 99 108 104 104 101 89 83 95 89 74 62 40 25 26 27 28 3 311 256 262 230 212 197 199 203 210 221
139 139 133 131 131 126 122 107 107 107 105 103 103 103 100 96 86 90 85 85 92 82 64 66 64 53 47 13 357 20 26 357 349 285 272 280 254 230 218 221 225 232 236
153 144 147 140 129 118 111 116 101 96 98 100 99 101 97 88 81 73 78 61 61 75 65 45 43 32 34 12 351 354 346 338 304 279 278 289 284 253 247 248 247 254 249
149 147 139 134 125 118 114 114 113 104 103 109 105 106 107 98 85 81 76 71 60 55 69 55 36 20 23 7 343 333 331 317 281 262 263 270 288 277 266 260 256 263 261
153 148 143 132 132 124 111 114 112 107 102 100 105 100 105 110 102 87 76 76 62 44 49 52 45 31 11 355 354 351 331 314 297 284 290 274 273 278 284 285 282 282 274
160 148 141 137 129 125 117 117 124 114 107 88 88 101 102 107 109 104 88 75 60 50 41 56 67 60 21 26 10 352 329 325 326 322 308 296 303 310 311 305 305 300 292
160 148 141 139 130 124 117 114 113 109 103 87 82 94 99 103 105 102 91 80 61 58 68 55 45 64 47 34 8 346 337 338 333 336 331 325 320 331 339 336 341 335 327
157 148 141 136 134 124 117 109 104 102 102 91 77 90 89 89 100 97 86 65 61 62 62 69 50 52 34 18 354 337 339 350 345 335 2 14 3 1 6 7 1 350 343
160 150 142 135 134 125 116 108 101 92 92 93 72 76 87 83 86 92 86 59 89 84 61 58 61 70 39 3 345 346 348 350 341 15 27 23 36 37 20 14 14 12 4
155 150 145 139 136 124 107 91 77 68 66 69 70 60 84 83 80 86 79 57 72 87 66 64 73 49 63 3 6 3 350 344 2 38 28 26 35 37 28 19 10 2 4
148 147 146 144 145 134 121 120 115 105 81 62 55 65 90 88 82 84 77 57 60 86 89 78 90 64 38 32 48 13 0 2 20 23 26 40 33 25 25 21 12 6 352
161 161 153 154 155 153 146 145 140 134 122 118 67 39 82 91 84 86 82 67 61 75 72 69 76 76 30 39 83 67 358 350 357 9 17 34 29 28 23 14 10 9 355
170 171 165 165 164 164 149 130 114 88 71 64 45 13 64 102 96 86 82 69 57 76 84 79 84 96 95 8 60 121 140 247 313 329 359 15 17 19 360 349 358 357 349
184 174 164 166 167 169 158 154 153 153 165 188 182 186 145 109 102 94 92 79 64 70 81 75 79 112 127 127 1 43 145 165 182 306 324 352 359 355 344 347 352 351 349
171 167 164 163 171 173 168 162 156 160 166 157 159 156 139 98 97 105 106 95 76 69 83 82 83 99 124 161 184 160 55 45 177 197 278 307 327 321 326 325 336 340 344
155 158 161 164 174 174 168 167 170 174 172 170 179 166 158 140 126 121 120 118 139 163 171 182 153 146 168 175 185 163 172 184 213 205 250 283 297 297 310 313 326 326 331